GW2092 Weather Reports


time (UTC)temp
C
wind
direction
speed
KPH
gust
KPH
rain 1hr
cm
rain 24hr
cm
rain mn
cm
humidity
%
barometer
mb
20260906131555 25 0 0.0 0.0 0.00 0.00 0.00 76 1015.8
20260906130052 24 0 0.0 0.0 0.00 0.00 0.00 79 1015.6
20260906124551 23 0 0.0 0.0 0.00 0.00 0.00 82 1015.3
20260906123055 22 0 0.0 0.0 0.00 0.00 0.00 85 1015.1
20260906121552 21 0 0.0 0.0 0.00 0.00 0.00 86 1015.2
20260906120049 21 0 0.0 0.0 0.00 0.00 0.00 86 1015.3
20260906114606 21 0 0.0 0.0 0.00 0.00 0.00 85 1015.3
20260906113054 21 0 0.0 0.0 0.00 0.00 0.00 85 1015.3
20260906111554 22 0 0.0 0.0 0.00 0.00 0.00 83 1015.1
20260906110100 22 0 0.0 0.0 0.00 0.00 0.00 82 1014.9
20260906104623 22 0 0.0 0.0 0.00 0.00 0.00 82 1015.0
20260906103054 22 0 0.0 0.0 0.00 0.00 0.00 82 1014.9
20260906101553 22 0 0.0 0.0 0.00 0.00 0.00 82 1014.8
20260906100045 22 0 0.0 0.0 0.00 0.00 0.00 82 1014.7
20260906094546 22 0 0.0 0.0 0.00 0.00 0.00 81 1014.7
20260906093113 22 0 0.0 0.0 0.00 0.00 0.00 81 1014.6
20260906091550 22 0 0.0 0.0 0.00 0.00 0.00 81 1014.5
20260906090050 22 0 0.0 0.0 0.00 0.00 0.00 80 1014.4
20260906084545 22 0 0.0 0.0 0.00 0.00 0.00 80 1014.1
20260906083053 23 0 0.0 0.0 0.00 0.00 0.00 79 1014.0
20260906081551 23 0 0.0 0.0 0.00 0.00 0.00 79 1014.1
20260906080047 23 0 0.0 0.0 0.00 0.00 0.00 78 1014.1
20260906074556 23 0 0.0 0.0 0.00 0.00 0.00 78 1014.2
20260906073056 23 0 0.0 0.0 0.00 0.00 0.00 77 1014.4
20260906071552 24 0 0.0 0.0 0.00 0.00 0.00 77 1014.4
20260906070045 24 0 0.0 0.0 0.00 0.00 0.00 76 1014.2
20260906064554 24 0 0.0 0.0 0.00 0.00 0.00 76 1014.3
20260906063046 25 0 0.0 0.0 0.00 0.00 0.00 74 1014.2
20260906061559 25 0 0.0 0.0 0.00 0.00 0.00 73 1014.3
20260906060053 25 0 0.0 0.0 0.00 0.00 0.00 72 1014.4
20260906054601 25 0 0.0 0.0 0.00 0.00 0.00 71 1014.4
20260906053047 26 0 0.0 0.0 0.00 0.00 0.00 70 1014.5
20260906051553 26 0 0.0 0.0 0.00 0.00 0.00 69 1014.5
20260906050112 26 0 0.0 0.0 0.00 0.00 0.00 69 1014.4
20260906044549 26 0 0.0 0.0 0.00 0.00 0.00 69 1014.4
20260906043044 26 0 0.0 0.0 0.00 0.00 0.00 68 1014.4
20260906041543 26 0 0.0 0.0 0.00 0.00 0.00 69 1014.4
20260906040050 26 0 0.0 0.0 0.00 0.00 0.00 68 1014.6
20260906034546 27 0 0.0 0.0 0.00 0.00 0.00 67 1014.3
20260906033053 27 0 0.0 0.0 0.00 0.00 0.00 65 1014.1
20260906031547 27 0 0.0 0.0 0.00 0.00 0.00 63 1014.0
20260906030045 27 0 0.0 0.0 0.00 0.00 0.00 63 1013.9
20260906024545 28 0 0.0 0.0 0.00 0.00 0.00 62 1013.8
20260906023048 28 0 0.0 0.0 0.00 0.00 0.00 61 1013.7
20260906021552 28 0 0.0 0.0 0.00 0.00 0.00 60 1013.6
20260906020052 29 0 0.0 0.0 0.00 0.00 0.00 58 1013.3
20260906014554 29 0 0.0 0.0 0.00 0.00 0.00 57 1013.3
20260906013049 30 0 0.0 0.0 0.00 0.00 0.00 55 1013.1
20260906011544 31 0 0.0 0.0 0.00 0.00 0.00 53 1013.0
20260906010046 31 0 0.0 0.0 0.00 0.00 0.00 52 1012.8
20260906004549 32 0 0.0 0.0 0.00 0.00 0.00 50 1012.7
20260906003047 33 0 0.0 0.0 0.00 0.00 0.00 47 1012.7
20260906001554 35 0 0.0 0.0 0.00 0.00 0.00 44 1012.8
20260906000057 35 0 0.0 0.0 0.00 0.00 0.00 41 1012.8
20260905234606 36 0 0.0 1.6 0.00 0.00 0.00 39 1012.8
20260905233056 36 0 0.0 1.6 0.00 0.00 0.00 38 1012.8
20260905231556 36 0 0.0 1.6 0.00 0.00 0.00 38 1012.8
20260905230109 37 0 0.0 1.6 0.00 0.00 0.00 37 1012.7
20260905224544 38 219 0.0 1.6 0.00 0.00 0.00 36 1012.7
20260905223054 38 0 0.0 1.6 0.00 0.00 0.00 36 1012.7
20260905221554 37 0 0.0 0.0 0.00 0.00 0.00 37 1012.8
20260905220045 38 0 0.0 1.6 0.00 0.00 0.00 36 1013.0
20260905214554 38 219 0.0 4.8 0.00 0.00 0.00 36 1013.0
20260905213049 39 77 0.0 9.7 0.00 0.00 0.00 36 1013.2
20260905211551 40 345 0.0 4.8 0.00 0.00 0.00 34 1013.3
20260905210052 40 210 0.0 3.2 0.00 0.00 0.00 34 1013.5
20260905204551 39 0 0.0 6.4 0.00 0.00 0.00 35 1013.7
20260905203054 40 207 0.0 4.8 0.00 0.00 0.00 34 1013.9
20260905201545 40 0 0.0 4.8 0.00 0.00 0.00 35 1014.3
20260905200046 39 161 1.6 11.3 0.00 0.00 0.00 36 1014.5
20260905194552 41 0 0.0 3.2 0.00 0.00 0.00 35 1014.6
20260905193105 38 65 0.0 4.8 0.00 0.00 0.00 37 1014.9
20260905191545 38 0 0.0 6.4 0.00 0.00 0.00 37 1015.1
20260905190055 39 82 0.0 6.4 0.00 0.00 0.00 38 1015.2
20260905184551 40 208 0.0 3.2 0.00 0.00 0.00 36 1015.3
20260905183059 39 141 0.0 4.8 0.00 0.00 0.00 36 1015.5
20260905181554 39 0 0.0 6.4 0.00 0.00 0.00 38 1015.8
20260905180049 37 312 0.0 3.2 0.00 0.00 0.00 40 1016.2
20260905174548 37 0 0.0 1.6 0.00 0.00 0.00 41 1016.3
20260905173055 38 82 0.0 3.2 0.00 0.00 0.00 40 1016.4
20260905171554 38 0 0.0 1.6 0.00 0.00 0.00 39 1016.6
20260905170046 38 0 0.0 1.6 0.00 0.00 0.00 42 1016.8
20260905164554 38 0 0.0 1.6 0.00 0.00 0.00 43 1016.8
20260905163056 37 0 0.0 4.8 0.00 0.00 0.00 45 1016.9
20260905161546 37 0 0.0 3.2 0.00 0.00 0.00 44 1017.1
20260905160055 36 0 0.0 4.8 0.00 0.00 0.00 46 1017.1
20260905154604 36 42 0.0 3.2 0.00 0.00 0.00 46 1017.0
20260905153052 36 191 0.0 4.8 0.00 0.00 0.00 48 1017.0
20260905151549 35 0 0.0 3.2 0.00 0.00 0.00 51 1017.0
20260905150108 33 0 0.0 3.2 0.00 0.00 0.00 54 1016.7
20260905144554 32 174 0.0 3.2 0.00 0.00 0.00 56 1016.7
20260905143052 32 0 0.0 4.8 0.00 0.00 0.00 58 1016.8
20260905141556 30 0 0.0 4.8 0.00 0.00 0.00 61 1016.8
20260905140058 30 202 0.0 1.6 0.00 0.00 0.00 64 1016.6
20260905134553 28 0 0.0 1.6 0.00 0.00 0.00 70 1016.6
20260905133045 26 0 0.0 1.6 0.00 0.00 0.00 74 1016.5